Location: ??????????
(48.5701°N, 37.7703°E)
Time: 20:05:46
(UTC+00:00)

SL-16 R/B - Pass Details

Date: 14 July 2020
Orbit: 985 x 1007 km, 99.5° (Epoch: 11 August)

Event Time Altitude Azimuth Distance (km) Brightness Sun altitude
Exits shadow 00:11:55 15° 214° (SW) 2,428 3.9 -11.5°
Maximum altitude 00:16:08 30° 266° (W) 1,733 3.5 -11.1°
Drops below altitude 10° 00:21:32 10° 326° (NW) 2,792 5.1 -10.5°
Sets 00:24:24 0° 337° (NNW) 3,748 6.0 -10.2°
